Hourly Weather Roundup
Issued by NWS Central Illinois

Home | Current Version | Previous Version | Text Only | Print | Product List | Glossary On
Versions: 1 2 3 4 5 6 7 8 9 10 11 12 13 14 15 16 17 18 19 20 21 22 23 24 25 26 27 28 29 30 31 32 33 34 35 36 37 38 39 40 41 42 43 44 45 46 47 48 49 50
000
NZUS43 KILX 240010
HWRILX

AREA WEATHER ROUNDUP
NATIONAL WEATHER SERVICE, LINCOLN IL
600 PM CST MON JAN 23 2017


CITY           SKY/WX    TMP DP  RH WIND       PRES   REMARKS
BLOOMINGTON    CLOUDY    39  35  86 NW7       29.81R WCI  34
6HR MIN TEMP:  39; 6HR MAX TEMP:  40;

CHAMPAIGN      CLOUDY    39  34  82 N12       29.79R WCI  32
6HR MIN TEMP:  39; 6HR MAX TEMP:  41;

DANVILLE       CLOUDY    38  35  89 NW13      29.75R WCI  30
6HR MIN TEMP:  38; 6HR MAX TEMP:  39;

DECATUR        CLOUDY    41  37  86 NW14      29.81R WCI  33
6HR MIN TEMP:  41; 6HR MAX TEMP:  42;

EFFINGHAM      CLOUDY    42  38  85 W12       29.83R
6HR MIN TEMP:  40; 6HR MAX TEMP:  42;

FLORA          CLOUDY    43  37  79 NW8       29.81S
6HR MIN TEMP:  42; 6HR MAX TEMP:  43;

GALESBURG      CLOUDY    37  35  92 W6        29.83R WCI  32
6HR MIN TEMP:  37; 6HR MAX TEMP:  40;

JACKSONVILLE   CLOUDY    38  33  82 W6        29.84S WCI  34
6HR MIN TEMP:  38; 6HR MAX TEMP:  41;

LACON          CLOUDY    39  37  91 NW6       29.82R WCI  35
6HR MIN TEMP:  39; 6HR MAX TEMP:  41;

LAWRENCEVILLE  CLOUDY    41  37  86 NW16      29.79R WCI  33
6HR MIN TEMP:  41; 6HR MAX TEMP:  43;

LITCHFIELD     CLOUDY    39  35  85 NW12G17   29.84R WCI  32
6HR MIN TEMP:  39; 6HR MAX TEMP:  41;

$$


CITY           SKY/WX    TMP DP  RH WIND       PRES   REMARKS
LINCOLN        CLOUDY    42  37  81 NW6       29.83R
6HR MIN TEMP:  42; 6HR MAX TEMP:  44;

MACOMB         CLOUDY    37  34  89 W5        29.85S WCI  33
6HR MIN TEMP:  37; 6HR MAX TEMP:  40;

MATTOON        CLOUDY    39  36  89 N13       29.79R WCI  31
6HR MIN TEMP:  38; 6HR MAX TEMP:  40;

MT CARMEL AP   CLOUDY    41  36  81 NW18      29.79R WCI  32
6HR MIN TEMP:  40; 6HR MAX TEMP:  42;

OLNEY-NOBLE AP CLOUDY    41  39  93 NW8       29.80R
PARIS          NOT AVBL
PEORIA         CLOUDY    40  36  86 NW7       29.83R
6HR MIN TEMP:  40; 6HR MAX TEMP:  43;

PONTIAC        CLOUDY    40  40  97 NW5       29.80R
6HR MIN TEMP:  40; 6HR MAX TEMP:  41;

RANTOUL        CLOUDY    41  37  86 NW8G16    29.78R
6HR MIN TEMP:  40; 6HR MAX TEMP:  41;

SPRINGFIELD    CLOUDY    41  34  76 NW9       29.85R
6HR MIN TEMP:  41; 6HR MAX TEMP:  44;

TAYLORVILLE    CLOUDY    40  34  81 NW9       29.83R WCI  33
6HR MIN TEMP:  39; 6HR MAX TEMP:  42;

$$

...REGIONAL REPORTS...


CITY           SKY/WX    TMP DP  RH WIND       PRES   REMARKS
CHICAGO O`HARE CLOUDY    41  35  79 NW9       29.77R
KANKAKEE       CLOUDY    41  35  79 NW9       29.78R WCI  35
MOLINE         CLOUDY    39  33  79 NW8       29.82S WCI  33
MOUNT STERLING CLOUDY    37  32  84 W7        29.83S WCI  31
MOUNT VERNON   CLOUDY    42  35  76 VRB7      29.84R
PITTSFIELD     CLOUDY    38  33  81 W3        29.85S
QUINCY         CLOUDY    36  31  82 W9        29.85R WCI  29
ROCKFORD       CLOUDY    40  35  83 NW9       29.81R WCI  34
$$


CITY           SKY/WX    TMP DP  RH WIND       PRES   REMARKS
BURLINGTON     CLOUDY    36  31  82 NW7       29.84R WCI  30
CEDAR RAPIDS   CLOUDY    32  29  88 NW6       29.83R WCI  26
DES MOINES     CLOUDY    34  28  79 N5        29.85F WCI  30
KIRKSVILLE     CLOUDY    33  30  88 CALM      29.86S
OTTUMWA        CLOUDY    33  29  85 NW5       29.85S WCI  29
ST LOUIS       CLOUDY    42  34  73 N3        29.85S
$$


CITY           SKY/WX    TMP DP  RH WIND       PRES   REMARKS
TERRE HAUTE    CLOUDY    40  35  83 NW8       29.76R WCI  34
EVANSVILLE     CLOUDY    42  35  76 NW12G22   29.79R
INDIANAPOLIS   DRIZZLE   41  39  93 NW10      29.72R FOG     WCI  35
LAFAYETTE      CLOUDY    38  37  97 NW12      29.75R FOG     WCI  30
MADISON        CLOUDY    37  35  92 NW3       29.81R
MILWAUKEE      CLOUDY    41  35  79 NW8       29.78R
$$






USA.gov is the U.S. government's official web portal to all federal, state and local government web resources and services.